Tracking 27111 objects as of 29-Mar-2023
HD Live streaming from Space Station
objects crossing your sky now

OBJECT C

Track OBJECT C now!
10-day predictions


NORAD ID: 48250
Int'l Code: 2021-033C
Perigee: 459.7 km
Apogee: 469.9 km
Inclination: 97.3 °
Period: 93.7 minutes
Semi major axis: 6835 km
RCS: Unknown
Launch date: April 27, 2021
Source: People's Republic of China (PRC)
Launch site: Taiyaun Space Center, China (TSC)
Your satellite tracking list
Your tracking list is empty




NASA's NSSDC Master Catalog

Two Line Element Set (TLE):
1 48250U 21033C   23087.98316293  .00044645  00000-0  12646-2 0  9993
2 48250  97.3195 162.4736 0007441 312.9551 172.5246 15.36108798106794
Source of the keplerian elements: AFSPC